Change the Weather History Date:

Thursday, January 31, 2013

  Actual Average (KMSL) Record (KMSL)
Temperature  
Mean Temperature 41 °F 42 °F  
Max Temperature 50 °F 52 °F 77 °F (1917)
Min Temperature 32 °F 32 °F -5 °F (1966)
Degree Days  
Heating Degree Days 24 23  
Month to date heating degree days 739  
Since 1 July heating degree days 1980  
Cooling Degree Days 0 0  
Month to date cooling degree days 0  
Year to date cooling degree days 0  
Moisture  
Dew Point 26 °F    
Average Humidity 61    
Maximum Humidity 80    
Minimum Humidity 32    
Precipitation  
Precipitation 0.00 in 0.16 in 4.41 in (1951)
Month to date precipitation 4.61  
Year to date precipitation 4.61  
Snow  
Snow 0.00 in - - ()
Month to date snowfall  
Since 1 July snowfall  
Snow Depth -    
Sea Level Pressure  
Sea Level Pressure 30.12 in    
Wind  
Wind Speed 12 mph (West)    
Max Wind Speed 18 mph    
Max Gust Speed 24 mph    
Visibility 10 miles    
Events      
T = Trace of Precipitation, MM = Missing Value Source: NWS Daily Summary

Daily Weather History Graph

Daily Weather History Graph

Search for Another Location

Airport or City:

Trip Planner

Search our weather history database for the weather conditions in past years. The results will help you decide how hot, cold, wet, or windy it might be!

Date:

Astronomy

Jan. 31, 2013 Rise Set
Actual Time 6:48 AM CST 5:18 PM CST
Civil Twilight 6:21 AM CST 5:44 PM CST
Nautical Twilight 5:51 AM CST 6:14 PM CST
Astronomical Twilight 5:21 AM CST 6:44 PM CST
Moon 10:04 PM CST (1/31) 9:01 AM CST (1/31)
Length of Visible Light 11h 23m
Length of Day
10h 29m
Waning Gibbous, 79% of the Moon is Illuminated
Jan 31
Waning Gibbous
Feb 3
Last Quarter
Feb 10
New
Feb 17
First Quarter
Feb 25
Full

Hourly Weather History & Observations

Time (CST) Temp. Windchill Dew Point Humidity Pressure Visibility Wind Dir Wind Speed Gust Speed Precip Events Conditions
12:15 AM 35.6 °F 25.9 °F 26.6 °F 70% 30.01 in 10.0 mi NW 16.1 mph 20.7 mph N/A   Overcast
12:35 AM 35.6 °F 25.9 °F 26.6 °F 70% 30.01 in 10.0 mi NW 16.1 mph 19.6 mph N/A   Overcast
12:55 AM 35.6 °F 28.6 °F 26.6 °F 70% 30.01 in 10.0 mi WNW 9.2 mph - N/A   Overcast
1:15 AM 35.6 °F 26.2 °F 26.6 °F 70% 30.03 in 10.0 mi West 15.0 mph 19.6 mph N/A   Overcast
1:35 AM 35.6 °F 25.9 °F 24.8 °F 65% 30.03 in 10.0 mi WNW 16.1 mph 24.2 mph N/A   Overcast
1:55 AM 35.6 °F 26.6 °F 24.8 °F 65% 30.04 in 10.0 mi WNW 13.8 mph 20.7 mph N/A   Overcast
2:15 AM 35.6 °F 27.1 °F 24.8 °F 65% 30.04 in 10.0 mi WNW 12.7 mph 20.7 mph N/A   Overcast
2:35 AM 33.8 °F 25.3 °F 24.8 °F 70% 30.04 in 10.0 mi WNW 11.5 mph - N/A   Mostly Cloudy
2:55 AM 33.8 °F 26.4 °F 24.8 °F 70% 30.03 in 10.0 mi West 9.2 mph - N/A   Mostly Cloudy
3:15 AM 33.8 °F 25.8 °F 26.6 °F 75% 30.04 in 10.0 mi West 10.4 mph 16.1 mph N/A   Scattered Clouds
3:35 AM 32.0 °F 23.6 °F 26.6 °F 80% 30.04 in 10.0 mi West 10.4 mph - N/A   Scattered Clouds
3:55 AM 32.0 °F 24.2 °F 24.8 °F 75% 30.04 in 10.0 mi West 9.2 mph - N/A   Clear
4:15 AM 32.0 °F 24.2 °F 24.8 °F 75% 30.05 in 10.0 mi West 9.2 mph - N/A   Clear
4:35 AM 32.0 °F 23.6 °F 24.8 °F 75% 30.05 in 10.0 mi West 10.4 mph - N/A   Clear
4:55 AM 32.0 °F 23.6 °F 26.6 °F 80% 30.06 in 10.0 mi West 10.4 mph - N/A   Clear
5:15 AM 32.0 °F 24.8 °F 26.6 °F 80% 30.08 in 10.0 mi West 8.1 mph - N/A   Clear
5:35 AM 32.0 °F 25.6 °F 26.6 °F 80% 30.09 in 10.0 mi WSW 6.9 mph - N/A   Mostly Cloudy
5:55 AM 32.0 °F 24.2 °F 26.6 °F 80% 30.09 in 10.0 mi West 9.2 mph - N/A   Mostly Cloudy
6:15 AM 32.0 °F 26.4 °F 26.6 °F 80% 30.09 in 10.0 mi WSW 5.8 mph - N/A   Scattered Clouds
6:55 AM 32.0 °F 24.8 °F 26.6 °F 80% 30.11 in 10.0 mi West 8.1 mph - N/A   Scattered Clouds
7:15 AM 32.0 °F 23.6 °F 26.6 °F 80% 30.12 in 10.0 mi West 10.4 mph - N/A   Scattered Clouds
7:35 AM 32.0 °F 23.0 °F 26.6 °F 80% 30.14 in 10.0 mi West 11.5 mph 17.3 mph N/A   Clear
7:55 AM 32.0 °F 24.2 °F 26.6 °F 80% 30.16 in 10.0 mi WNW 9.2 mph 17.3 mph N/A   Clear
8:15 AM 32.0 °F 23.0 °F 24.8 °F 75% 30.18 in 10.0 mi West 11.5 mph 17.3 mph N/A   Clear
8:35 AM 33.8 °F 25.8 °F 26.6 °F 75% 30.18 in 10.0 mi WNW 10.4 mph - N/A   Clear
8:55 AM 33.8 °F 23.9 °F 24.8 °F 70% 30.18 in 10.0 mi West 15.0 mph 18.4 mph N/A   Clear
9:15 AM 33.8 °F 24.3 °F 24.8 °F 70% 30.18 in 10.0 mi WNW 13.8 mph - N/A   Clear
9:35 AM 35.6 °F 26.2 °F 24.8 °F 65% 30.18 in 10.0 mi WNW 15.0 mph - N/A   Clear
9:55 AM 35.6 °F 26.2 °F 26.6 °F 70% 30.18 in 10.0 mi WNW 15.0 mph 20.7 mph N/A   Clear
10:15 AM 37.4 °F 29.3 °F 26.6 °F 65% 30.19 in 10.0 mi WNW 12.7 mph 20.7 mph N/A   Clear
10:35 AM 37.4 °F 31.4 °F 26.6 °F 65% 30.19 in 10.0 mi WNW 8.1 mph 17.3 mph N/A   Clear
10:55 AM 39.2 °F 32.0 °F 26.6 °F 61% 30.20 in 10.0 mi WNW 11.5 mph 17.3 mph N/A   Clear
11:15 AM 41.0 °F 34.7 °F 26.6 °F 57% 30.20 in 10.0 mi WNW 10.4 mph 16.1 mph N/A   Clear
11:35 AM 41.0 °F 34.7 °F 26.6 °F 57% 30.18 in 10.0 mi West 10.4 mph 16.1 mph N/A   Clear
11:55 AM 42.8 °F 37.0 °F 26.6 °F 53% 30.18 in 10.0 mi West 10.4 mph - N/A   Clear
12:15 PM 42.8 °F 37.5 °F 23.0 °F 46% 30.16 in 10.0 mi West 9.2 mph - N/A   Clear
12:35 PM 44.6 °F 38.1 °F 23.0 °F 43% 30.15 in 10.0 mi WNW 13.8 mph 19.6 mph N/A   Clear
12:55 PM 46.4 °F 41.5 °F 24.8 °F 43% 30.15 in 10.0 mi NW 10.4 mph 18.4 mph N/A   Clear
1:15 PM 46.4 °F 41.9 °F 23.0 °F 40% 30.13 in 10.0 mi NW 9.2 mph - N/A   Clear
1:35 PM 46.4 °F 41.1 °F 23.0 °F 40% 30.14 in 10.0 mi WNW 11.5 mph 16.1 mph N/A   Clear
1:55 PM 48.2 °F - 23.0 °F 37% 30.13 in 10.0 mi NW 9.2 mph - N/A   Clear
2:15 PM 48.2 °F - 23.0 °F 37% 30.13 in 10.0 mi WNW 9.2 mph 24.2 mph N/A   Clear
2:35 PM 50.0 °F - 23.0 °F 35% 30.13 in 10.0 mi WSW 12.7 mph 20.7 mph N/A   Clear
2:55 PM 50.0 °F - 21.2 °F 32% 30.13 in 10.0 mi West 11.5 mph 19.6 mph N/A   Clear
3:15 PM 50.0 °F - 23.0 °F 35% 30.12 in 10.0 mi WSW 11.5 mph 16.1 mph N/A   Clear
3:35 PM 50.0 °F - 23.0 °F 35% 30.11 in 10.0 mi WSW 17.3 mph 20.7 mph N/A   Clear
3:55 PM 50.0 °F - 23.0 °F 35% 30.11 in 10.0 mi WSW 11.5 mph 19.6 mph N/A   Clear
4:15 PM 50.0 °F - 23.0 °F 35% 30.10 in 10.0 mi SW 10.4 mph - N/A   Clear
4:35 PM 48.2 °F - 24.8 °F 40% 30.10 in 10.0 mi WSW 13.8 mph 18.4 mph N/A   Clear
4:55 PM 48.2 °F - 24.8 °F 40% 30.10 in 10.0 mi WSW 12.7 mph - N/A   Clear
5:15 PM 46.4 °F 41.9 °F 26.6 °F 46% 30.10 in 10.0 mi WSW 9.2 mph - N/A   Clear
5:35 PM 44.6 °F 40.2 °F 26.6 °F 49% 30.11 in 10.0 mi WSW 8.1 mph - N/A   Clear
5:55 PM 44.6 °F 40.7 °F 28.4 °F 53% 30.12 in 10.0 mi WSW 6.9 mph - N/A   Clear
6:15 PM 42.8 °F 39.3 °F 28.4 °F 57% 30.13 in 10.0 mi SW 5.8 mph - N/A   Clear
6:35 PM 42.8 °F 40.1 °F 28.4 °F 57% 30.13 in 10.0 mi SW 4.6 mph - N/A   Clear
6:55 PM 41.0 °F 37.1 °F 28.4 °F 61% 30.13 in 10.0 mi SW 5.8 mph - N/A   Clear
7:15 PM 41.0 °F 37.1 °F 28.4 °F 61% 30.13 in 10.0 mi SSW 5.8 mph - N/A   Clear
7:35 PM 41.0 °F 38.0 °F 28.4 °F 61% 30.12 in 10.0 mi SW 4.6 mph - N/A   Clear
7:55 PM 41.0 °F 35.8 °F 28.4 °F 61% 30.13 in 10.0 mi SW 8.1 mph - N/A   Clear
8:15 PM 41.0 °F 36.4 °F 28.4 °F 61% 30.13 in 10.0 mi SW 6.9 mph - N/A   Clear
8:35 PM 41.0 °F 36.4 °F 28.4 °F 61% 30.14 in 10.0 mi WSW 6.9 mph - N/A   Clear
8:55 PM 42.8 °F 37.5 °F 28.4 °F 57% 30.15 in 10.0 mi WSW 9.2 mph - N/A   Clear
9:15 PM 41.0 °F 35.8 °F 28.4 °F 61% 30.15 in 10.0 mi WSW 8.1 mph - N/A   Clear
9:35 PM 41.0 °F 35.8 °F 30.2 °F 65% 30.14 in 10.0 mi SW 8.1 mph - N/A   Clear
9:55 PM 41.0 °F 34.3 °F 28.4 °F 61% 30.14 in 10.0 mi SW 11.5 mph - N/A   Clear
10:15 PM 41.0 °F 34.3 °F 28.4 °F 61% 30.14 in 10.0 mi SW 11.5 mph - N/A   Clear
10:35 PM 42.8 °F 37.0 °F 28.4 °F 57% 30.14 in 10.0 mi SW 10.4 mph - N/A   Mostly Cloudy
10:55 PM 42.8 °F 35.1 °F 28.4 °F 57% 30.18 in 10.0 mi NW 16.1 mph 19.6 mph N/A   Mostly Cloudy
11:15 PM 44.6 °F 38.8 °F 30.2 °F 57% 30.18 in 10.0 mi WNW 11.5 mph 18.4 mph N/A   Scattered Clouds
11:35 PM 44.6 °F 38.1 °F 30.2 °F 57% 30.20 in 10.0 mi WNW 13.8 mph 23.0 mph N/A   Clear
11:55 PM 42.8 °F 34.5 °F 32.0 °F 66% 30.21 in 10.0 mi NW 18.4 mph 24.2 mph N/A   Clear